Flag for United Kingdom Weather past 2 weeks in Horsham, England, United Kingdom

Now
70 °F

Passing clouds.


Feels Like: 70 °F
Forecast: 58 / 71 °F
Wind: 9 mph from Southwest

Location: London / Gatwick Airport

Current Time: Aug 1, 2014 at 5:25:19 PM

Latest Report: Aug 1, 2014 at 4:50 PM


Visibility: N/A

Pressure: 29.77 "Hg

Humidity: 60%

Dew point: 55 °F

Location of HorshamLocation

Historic Weather in Horsham — Graph

°F

Horsham temperature yesterday

Maximum temperature yesterday: 75 °F (at 3:20 PM)
Minimum temperature yesterday: 55 °F (at 5:20 AM)
Average temperature yesterday: 66 °F

Past Weeks' High & Low Weather Summary

 TemperatureHumidityPressure
High82 °F (Jul 18, 2:20 PM)100% (Jul 20, 5:20 AM)30.21 "Hg (Jul 20, 5:20 AM)
Low55 °F (Jul 31, 5:20 AM)34% (Jul 24, 5:50 PM)29.74 "Hg (Jul 19, 6:50 AM)
Average69 °F70%29.98 "Hg
* Reported Jul 17 4:20 PM — Aug 1 4:20 PM, Horsham, Weather by CustomWeather, © 2014

Note: Actual official high and low records may vary slightly from our data, if they occured in-between our weather recording intervals... More about our weather records

Advertising

Horsham weather history for previous 24 hours

 ConditionsComfort  
Time TempWeatherWind HumidityBarometerVisibility
4:20 PM
Aug 1
70 °FPassing clouds.10 mph60%29.77 "HgN/A
3:50 PM70 °FPassing clouds.10 mph57%29.77 "HgN/A
3:20 PM72 °FPassing clouds.10 mph57%29.77 "HgN/A
2:50 PM72 °FScattered clouds.10 mph53%29.77 "HgN/A
2:20 PM72 °FPartly sunny.9 mph57%29.77 "HgN/A
1:50 PM70 °FScattered clouds.12 mph64%29.80 "HgN/A
1:20 PM72 °FScattered clouds.10 mph61%29.80 "HgN/A
12:50 PM72 °FScattered clouds.12 mph65%29.80 "HgN/A
12:20 PM70 °FScattered clouds.13 mph69%29.80 "HgN/A
11:50 AM70 °FScattered clouds.10 mph69%29.80 "HgN/A
11:20 AM70 °FScattered clouds.9 mph69%29.80 "HgN/A
10:50 AM68 °FScattered clouds.8 mph73%29.80 "HgN/A
10:20 AM68 °FScattered clouds.9 mph73%29.83 "HgN/A
9:50 AM68 °FScattered clouds.7 mph73%29.83 "HgN/A
9:20 AM66 °FScattered clouds.8 mph78%29.83 "HgN/A
8:50 AM66 °FScattered clouds.8 mph78%29.83 "HgN/A
8:20 AM64 °FScattered clouds.6 mph88%29.83 "HgN/A
7:50 AM63 °FScattered clouds.3 mph88%29.83 "Hg5 mi
7:20 AM63 °FPartly sunny.2 mph88%29.83 "Hg4 mi
6:50 AM61 °FPartly sunny.2 mph94%29.83 "Hg4 mi
6:20 AM59 °FPassing clouds.3 mph100%29.83 "Hg4 mi
5:50 AM59 °FPassing clouds.5 mph100%29.86 "Hg4 mi
5:20 AM57 °FFog.3 mph100%29.86 "Hg6 mi
4:50 AM57 °FClear.No wind94%29.86 "Hg10 mi
4:20 AM57 °FClear.2 mph100%29.86 "Hg10 mi
3:50 AM57 °FClear.No wind94%29.86 "Hg10 mi
3:20 AM59 °FClear.2 mph94%29.86 "Hg10 mi
2:50 AM59 °FClear.3 mph94%29.89 "Hg10 mi
2:20 AM59 °FClear.2 mph94%29.89 "Hg10 mi
1:50 AM59 °FClear.2 mph94%29.89 "Hg10 mi
1:20 AM61 °FClear.2 mph88%29.89 "Hg10 mi
12:50 AM61 °FClear.3 mph88%29.89 "Hg10 mi
12:20 AM63 °FPassing clouds.5 mph83%29.89 "HgN/A
11:50 PM
Jul 31
63 °FClear.5 mph83%29.89 "Hg10 mi
11:20 PM63 °FClear.5 mph83%29.92 "Hg10 mi
10:50 PM63 °FClear.6 mph83%29.92 "Hg10 mi
10:20 PM64 °FClear.5 mph78%29.92 "Hg10 mi
9:50 PM66 °FPassing clouds.5 mph73%29.92 "HgN/A
9:20 PM66 °FPassing clouds.5 mph73%29.92 "HgN/A
8:50 PM66 °FPassing clouds.6 mph73%29.89 "HgN/A
8:20 PM68 °FPassing clouds.8 mph73%29.89 "HgN/A
7:50 PM70 °FPassing clouds.7 mph69%29.89 "HgN/A
7:20 PM70 °FPassing clouds.7 mph69%29.89 "HgN/A
6:50 PM70 °FPassing clouds.10 mph69%29.92 "HgN/A
6:20 PM70 °FPassing clouds.9 mph69%29.92 "HgN/A
5:50 PM70 °FPassing clouds.10 mph69%29.92 "HgN/A
5:20 PM72 °FPassing clouds.13 mph65%29.92 "HgN/A
Weather by CustomWeather, © 2014

See weather overviewHow to use our weather pages